T 2008 Apr. 22.3613 TT MPC q 2.010854 (2000.0) P Q z +0.003955 Peri. 101.7961 -0.1154259 -0.9077696 Node 24.1895 -0.6051996 -0.2576647 e 0.992047 Incl. 100.2036 +0.7876613 -0.3310035 From 50 observations 2008 June 13-Aug. 3.
m1 = 11.0 + 5 logΔ + 15.0 log r